This demonstration page uses our WeatherBlox Daily Observations layout. Learn more.

Left ArrowRight Arrow

Hourly Observations for November 23, 2016

Temp ( °F °C ) Dew Point ( °F °C ) Humidity (%) Winds ( mph kmh ) Pressure ( in mb ) Visibility ( mi km ) Precip ( " mm )
12:15 am 00:15 Partly Cloudy 38 3.5 35 1.9 89 89 NNW 10 17 30.06 1018 10 16 N/A
12:35 am 00:35 Partly Cloudy 38 3.5 35 1.7 88 88 NNW 13 20 30.06 1018 10 16 N/A
12:55 am 00:55 Partly Cloudy 38 3.5 35 1.5 87 87 NNW 12 19 30.06 1018 10 16 N/A
1:15 am 01:15 Clear 38 3.3 34 1.2 86 86 NNW 12 19 30.06 1018 10 16 N/A
1:35 am 01:35 Clear 37 2.8 34 1 88 88 NNW 9 15 30.12 1020 10 16 N/A
1:55 am 01:55 Clear 37 2.7 34 1 89 89 NNW 10 17 30.12 1020 10 16 N/A
2:15 am 02:15 Clear 37 2.5 33 0.7 88 88 NNW 9 15 30.12 1020 10 16 N/A
2:35 am 02:35 Clear 37 2.5 33 0.7 88 88 NNW 10 17 30.12 1020 10 16 N/A
2:55 am 02:55 Partly Cloudy 37 2.6 33 0.8 88 88 NNW 10 17 30.12 1020 10 16 N/A
3:15 am 03:15 Clear 37 2.5 33 0.6 87 87 NNW 13 20 30.12 1020 10 16 N/A
3:35 am 03:35 Clear 36 2.2 33 0.4 88 88 NNW 12 19 30.12 1020 10 16 N/A
3:55 am 03:55 Clear 37 2.5 33 0.5 87 87 NNW 10 17 30.12 1020 10 16 N/A
4:15 am 04:15 Clear 36 2.2 32 0.2 87 87 NNW 10 17 30.12 1020 10 16 N/A
4:35 am 04:35 Clear 35 1.6 32 undefined 89 89 NNW 10 17 30.12 1020 10 16 N/A
4:55 am 04:55 Clear 35 1.5 32 undefined 90 90 NW 9 15 30.15 1021 10 16 N/A
5:15 am 05:15 Clear 34 1 32 -0.1 92 92 NW 7 11 30.15 1021 10 16 N/A
5:35 am 05:35 Clear 35 1.5 32 undefined 90 90 NW 10 17 30.15 1021 10 16 N/A
5:55 am 05:55 Clear 35 1.6 32 undefined 89 89 NNW 12 19 30.15 1021 10 16 N/A
6:15 am 06:15 Clear 35 1.9 32 undefined 87 87 NNW 13 20 30.15 1021 10 16 N/A
6:35 am 06:35 Clear 35 1.6 32 undefined 89 89 NW 8 13 30.15 1021 10 16 N/A
6:55 am 06:55 Clear 34 1.3 32 -0.1 91 91 NW 9 15 30.18 1022 10 16 N/A
7:15 am 07:15 Clear 34 1.2 32 -0.2 91 91 NW 10 17 30.18 1022 10 16 N/A
7:35 am 07:35 Sunny 34 0.9 31 -0.5 90 90 NW 9 15 30.18 1022 10 16 N/A
7:55 am 07:55 Sunny 33 0.8 31 -0.5 91 91 NW 7 11 30.21 1023 10 16 N/A
8:15 am 08:15 Sunny 34 1 31 -0.5 90 90 NNW 8 13 30.21 1023 10 16 N/A
8:35 am 08:35 Sunny 34 1.2 31 -0.3 90 90 NW 7 11 30.21 1023 10 16 N/A
8:55 am 08:55 Partly Cloudy 35 1.5 32 -0.1 89 89 N 7 11 30.21 1023 10 16 N/A
9:15 am 09:15 Cloudy 34 1.2 32 -0.1 91 91 NNW 6 9 30.21 1023 10 16 N/A
9:35 am 09:35 Cloudy 34 1.2 32 undefined 92 92 N 9 15 30.21 1023 10 16 N/A
9:55 am 09:55 Cloudy 35 1.5 32 undefined 90 90 N 14 22 30.21 1023 10 16 N/A
10:15 am 10:15 Cloudy 35 1.6 32 0.2 91 91 NNW 9 15 30.21 1023 10 16 N/A
10:35 am 10:35 Cloudy 36 2 33 0.3 89 89 N 9 15 30.21 1023 10 16 N/A
10:55 am 10:55 Cloudy 37 2.5 34 0.9 89 89 N 7 11 30.21 1023 10 16 N/A
11:15 am 11:15 Cloudy 38 3.1 34 1.1 87 87 N 3 6 30.21 1023 10 16 N/A
11:35 am 11:35 Cloudy 38 3.1 34 1.3 88 88 NNW 8 13 30.21 1023 10 16 N/A
11:55 am 11:55 Cloudy 38 3.3 34 1 85 85 NNW 7 11 30.21 1023 10 16 N/A
12:15 pm 12:15 Cloudy 39 3.9 34 1.3 83 83 NW 5 7 30.18 1022 10 16 N/A
12:35 pm 12:35 Cloudy 40 4.6 35 1.5 81 81 NNW 6 9 30.18 1022 10 16 N/A
12:55 pm 12:55 Mostly Cloudy 41 5 35 1.7 79 79 NNW 7 11 30.18 1022 10 16 N/A
1:15 pm 13:15 Partly Cloudy 42 5.7 35 1.8 76 76 N 7 11 30.18 1022 10 16 N/A
1:35 pm 13:35 Partly Cloudy 43 6.2 36 2 75 75 N 8 13 30.18 1022 10 16 N/A
1:55 pm 13:55 Sunny 44 6.5 34 1.3 70 70 NW 5 7 30.18 1022 10 16 N/A
2:15 pm 14:15 Sunny 44 6.8 35 1.5 69 69 NNW 5 7 30.12 1020 10 16 N/A
2:35 pm 14:35 Sunny 44 6.9 35 1.5 69 69 N N/A 30.12 1020 10 16 N/A
2:55 pm 14:55 Sunny 45 7.1 35 1.5 68 68 NNE 3 6 30.12 1020 10 16 N/A
3:15 pm 15:15 Sunny 45 7 34 1.1 66 66 N N/A 30.12 1020 10 16 N/A
3:35 pm 15:35 Sunny 45 7 34 1.1 66 66 N N/A 30.12 1020 10 16 N/A
3:55 pm 15:55 Sunny 44 6.8 34 1.1 67 67 N N/A 30.12 1020 10 16 N/A
4:15 pm 16:15 Sunny 44 6.7 34 1 67 67 N N/A 30.15 1021 10 16 N/A
4:35 pm 16:35 Sunny 44 6.5 34 1.2 69 69 N N/A 30.15 1021 10 16 N/A
4:55 pm 16:55 Sunny 42 5.4 34 1.3 75 75 E 5 7 30.15 1021 10 16 N/A
5:15 pm 17:15 Clear 40 4.2 33 0.8 79 79 N N/A 30.15 1021 10 16 N/A
5:35 pm 17:35 Clear 37 2.5 33 0.3 86 86 ESE 5 7 30.18 1022 10 16 N/A
5:55 pm 17:55 Clear 36 2.2 32 undefined 86 86 SE 6 9 30.18 1022 10 16 N/A
6:15 pm 18:15 Clear 32 0.2 30 -0.9 92 92 ESE 6 9 30.21 1023 10 16 N/A
6:35 pm 18:35 Clear 32 -0.1 30 -1.3 92 92 ESE 7 11 30.21 1023 10 16 N/A
6:55 pm 18:55 Clear 31 -0.4 29 -1.7 91 91 ESE 9 15 30.21 1023 10 16 N/A
7:15 pm 19:15 Clear 32 undefined 31 -0.8 94 94 SE 8 13 30.21 1023 10 16 N/A
7:35 pm 19:35 Clear 31 -0.5 29 -1.5 93 93 ESE 7 11 30.21 1023 7 11 N/A
7:55 pm 19:55 Clear 31 -0.6 29 -1.4 94 94 ESE 8 13 30.21 1023 7 11 N/A
8:15 pm 20:15 Clear 31 -0.6 29 -1.5 94 94 ESE 7 11 30.21 1023 7 11 N/A
8:35 pm 20:35 Clear 30 -1.1 28 -2.1 93 93 SE 7 11 30.21 1023 7 11 N/A
8:55 pm 20:55 Clear 29 -1.5 28 -2.3 94 94 ESE 8 13 30.21 1023 7 11 N/A
9:15 pm 21:15 Clear 30 -1.2 28 -2 94 94 ESE 9 15 30.21 1023 7 11 N/A
9:35 pm 21:35 Clear 31 -0.8 29 -1.5 95 95 ESE 8 13 30.21 1023 7 11 N/A
9:55 pm 21:55 Clear 30 -1 29 -1.6 96 96 ESE 9 15 30.21 1023 7 11 N/A
10:15 pm 22:15 Clear 30 -1 29 -1.6 96 96 SE 7 11 30.21 1023 7 11 N/A
10:35 pm 22:35 Clear with Mist and Fog 30 -1.2 29 -1.8 96 96 SE 8 13 30.21 1023 5 8 N/A
10:55 pm 22:55 Clear with Mist and Fog 30 -1 29 -1.6 96 96 SE 9 15 30.21 1023 5 8 N/A
11:15 pm 23:15 Clear with Mist and Fog 30 -0.9 29 -1.5 96 96 SE 9 15 30.21 1023 4 6 N/A
11:35 pm 23:35 Mostly Cloudy with Mist and Fog 30 -1 29 -1.6 96 96 SE 9 15 30.21 1023 4 6 N/A
11:55 pm 23:55 Cloudy with Mist and Fog 30 -0.9 29 -1.5 96 96 SE 12 19 30.21 1023 3 5 N/A

Powered by AerisWeather